FW1194 Weather Reports


time (UTC)temp
C
wind
direction
speed
KPH
gust
KPH
rain 1hr
cm
rain 24hr
cm
rain mn
cm
humidity
%
barometer
mb
20260504194237 26 225 12.9 19.3 0.00 0.00 0.00 29 998.3
20260504193237 26 248 16.1 22.5 0.00 0.00 0.00 28 998.4
20260504192218 26 248 27.4 38.6 0.00 0.00 0.00 28 998.5
20260504191216 26 0 24.1 32.2 0.00 0.00 0.00 30 998.7
20260504190216 26 203 19.3 27.4 0.00 0.00 0.00 32 998.8
20260504185216 26 248 16.1 24.1 0.00 0.00 0.00 30 998.8
20260504184216 26 0 17.7 27.4 0.00 0.00 0.00 31 999.0
20260504183216 25 248 16.1 24.1 0.00 0.00 0.00 32 998.9
20260504182216 25 248 17.7 24.1 0.00 0.00 0.00 31 998.9
20260504181216 25 225 19.3 32.2 0.00 0.00 0.00 31 999.1
20260504180216 25 225 16.1 24.1 0.00 0.00 0.00 31 999.3
20260504175216 25 203 25.7 38.6 0.00 0.00 0.00 32 999.5
20260504174216 24 270 17.7 33.8 0.00 0.00 0.00 33 999.5
20260504173257 24 225 16.1 20.9 0.00 0.00 0.00 36 999.8
20260504172216 23 180 12.9 17.7 0.00 0.00 0.00 39 999.9
20260504171216 23 270 14.5 25.7 0.00 0.00 0.00 39 999.9
20260504170216 23 248 16.1 22.5 0.00 0.00 0.00 37 1000.3
20260504160216 22 0 12.9 17.7 0.00 0.00 0.00 41 1001.1
20260504150236 20 0 16.1 22.5 0.00 0.00 0.00 45 1001.7
20260504141216 17 0 14.5 25.7 0.00 0.00 0.00 54 1002.4
20260504140216 16 0 9.7 12.9 0.00 0.00 0.00 57 1002.4
20260504130216 13 0 8.0 9.7 0.00 0.00 0.00 70 1003.0
20260504120216 10 0 6.4 8.0 0.00 0.00 0.00 80 1002.9
20260504110238 8 225 3.2 3.2 0.00 0.00 0.00 81 1002.8
20260504100218 8 180 4.8 9.7 0.00 0.00 0.00 80 1003.0
20260504081218 9 225 1.6 3.2 0.00 0.00 0.00 75 1002.8
20260504080218 9 225 3.2 4.8 0.00 0.00 0.00 74 1002.8
20260504070217 11 225 3.2 4.8 0.00 0.00 0.00 70 1003.7
20260504060217 12 248 4.8 6.4 0.00 0.00 0.00 67 1004.3
20260504050217 13 0 6.4 9.7 0.00 0.00 0.00 65 1004.5
20260504045236 13 248 6.4 8.0 0.00 0.00 0.00 64 1004.5
20260504044215 13 0 6.4 9.7 0.00 0.00 0.00 63 1004.5
20260504043215 13 180 9.7 20.9 0.00 0.00 0.00 63 1004.4
20260504042236 13 180 8.0 14.5 0.00 0.00 0.00 62 1004.5
20260504041236 14 0 4.8 8.0 0.00 0.00 0.00 61 1004.4
20260504040218 14 203 6.4 9.7 0.00 0.00 0.00 60 1004.4
20260504035237 14 225 4.8 9.7 0.00 0.00 0.00 60 1004.4
20260504034218 15 203 4.8 8.0 0.00 0.00 0.00 59 1004.6
20260504033217 15 203 6.4 11.3 0.00 0.00 0.00 59 1004.8
20260504032218 15 203 6.4 9.7 0.00 0.00 0.00 59 1004.8
20260504031218 15 180 4.8 8.0 0.00 0.00 0.00 59 1004.9
20260504030218 15 0 4.8 8.0 0.00 0.00 0.00 59 1004.9
20260504025217 15 0 4.8 6.4 0.00 0.00 0.00 59 1005.0
20260504024217 15 0 4.8 6.4 0.00 0.00 0.00 59 1005.0
20260504023217 15 203 4.8 6.4 0.00 0.00 0.00 59 1005.0
20260504022217 15 180 4.8 9.7 0.00 0.00 0.00 58 1005.0
20260504021218 16 0 6.4 8.0 0.00 0.00 0.00 57 1004.9
20260504020217 16 203 3.2 4.8 0.00 0.00 0.00 55 1004.8
20260504015217 16 0 6.4 9.7 0.00 0.00 0.00 54 1004.6
20260504014217 16 225 3.2 6.4 0.00 0.00 0.00 53 1004.6
20260504013218 16 203 6.4 11.3 0.00 0.00 0.00 52 1004.4
20260504012217 17 225 6.4 12.9 0.00 0.00 0.00 51 1004.5
20260504011238 17 203 8.0 14.5 0.00 0.00 0.00 50 1004.4
20260504010217 17 203 4.8 6.4 0.00 0.00 0.00 49 1004.3
20260504005218 18 203 6.4 8.0 0.00 0.00 0.00 48 1004.3
20260504004238 18 0 8.0 12.9 0.00 0.00 0.00 47 1004.4
20260504003217 19 225 9.7 14.5 0.00 0.00 0.00 46 1004.4
20260504002217 19 0 9.7 16.1 0.00 0.00 0.00 44 1004.4
20260504001217 20 248 12.9 17.7 0.00 0.00 0.00 43 1004.5
20260504000219 20 225 11.3 17.7 0.00 0.00 0.00 43 1004.4
20260503235237 20 248 16.1 24.1 0.00 0.00 0.00 42 1004.4
20260503234218 20 0 16.1 24.1 0.00 0.00 0.00 41 1004.4
20260503233217 20 248 12.9 20.9 0.00 0.00 0.00 41 1004.4
20260503232218 20 0 16.1 20.9 0.00 0.00 0.00 40 1004.5
20260503231217 20 225 27.4 37.0 0.00 0.00 0.00 40 1004.6
20260503230257 20 0 20.9 29.0 0.00 0.00 0.00 40 1004.6
20260503225217 20 0 19.3 32.2 0.00 0.00 0.00 41 1004.7
20260503224217 20 0 12.9 22.5 0.00 0.00 0.00 41 1004.8
20260503223217 20 0 20.9 30.6 0.00 0.00 0.00 40 1004.8
20260503222217 20 225 17.7 24.1 0.00 0.00 0.00 39 1004.9
20260503221217 20 225 16.1 27.4 0.00 0.00 0.00 40 1004.9
20260503220217 20 180 17.7 25.7 0.00 0.00 0.00 40 1005.0
20260503215217 20 225 11.3 16.1 0.00 0.00 0.00 40 1005.2
20260503214217 20 0 17.7 27.4 0.00 0.00 0.00 40 1005.3
20260503213217 20 0 16.1 22.5 0.00 0.00 0.00 40 1005.4
20260503212217 20 0 19.3 29.0 0.00 0.00 0.00 40 1005.7
20260503211217 19 225 27.4 43.5 0.00 0.00 0.00 40 1005.8
20260503210217 19 203 27.4 43.5 0.00 0.00 0.00 40 1006.0
20260503205237 18 203 24.1 37.0 0.00 0.00 0.00 39 1006.2
20260503204237 19 225 19.3 29.0 0.00 0.00 0.00 39 1006.3
20260503203217 18 225 19.3 33.8 0.00 0.00 0.00 40 1006.6
20260503202217 17 180 19.3 27.4 0.00 0.00 0.00 41 1006.9
20260503201237 18 203 25.7 40.2 0.00 0.00 0.00 41 1006.9
20260503200217 18 180 19.3 27.4 0.00 0.00 0.00 41 1007.1
20260503195217 18 203 24.1 43.5 0.00 0.00 0.00 42 1007.3